User: anonymous   Login
Location: Caltech
(34.1382°N, 118.1253°W)
Time: 00:03:18
(UTC-07:00)
Language:

Tiros 1 despin weight - Orbit

View from above orbital plane
View from above orbital plane
View from above satellite
View from above satellite

Ground track
Ground track

The orbit data is extracted from the following two-line orbital elements,

1 00115U 60002D   16269.40796420  .00000283  00000-0  61663-4 0  9990
2 00115  48.1677 335.9789 0034484  11.8405 348.3311 14.82882973 10925
Epoch (UTC): 25 September 2016 09:47:28
Eccentricity: 0.0034484
inclination: 48.1677°
perigee height: 596 km
apogee height: 644 km
right ascension of ascending node: 335.9789°
argument of perigee: 11.8405°
revolutions per day: 14.82882973
mean anomaly at epoch: 348.3311°
orbit number at epoch: 1092

The dashed part of the orbit path shows where the satellite is in the earth's shadow,  

DLR